Location: Black Swamp Observatory
(41.3920°N, 84.1250°W)
Time: 06:45:06
(UTC-05:00)

Courier 1B Rocket - Visible Passes

Search period start: 19 January 2022 00:00
Search period end: 29 January 2022 00:00
Orbit: 920 x 1202 km, 28.2° (Epoch: 18 January)

Date Brightness Start Highest point End Pass type
(mag) Time Alt. Az. Time Alt. Az. Time Alt. Az.
19 Jan 7.3 04:12:11 14° SE 04:12:11 14° SE 04:13:30 10° ESE visible
19 Jan 6.5 05:58:34 17° SW 06:01:45 25° S 06:06:43 10° SE visible
20 Jan 6.5 05:01:21 24° S 05:01:21 24° S 05:05:57 10° ESE visible
20 Jan 6.6 06:48:39 10° WSW 06:53:31 23° S 06:58:15 10° SE visible
21 Jan 7.4 04:04:06 13° SE 04:04:06 13° SE 04:05:05 10° ESE visible
21 Jan 6.4 05:50:28 20° SW 05:52:45 25° S 05:57:46 10° SE visible
22 Jan 6.6 04:53:12 24° SSE 04:53:12 24° SSE 04:57:09 10° SE visible
22 Jan 6.7 06:39:54 10° WSW 06:44:29 20° SSW 06:48:55 10° SSE visible
23 Jan 7.5 03:55:56 12° SE 03:55:56 12° SE 03:56:25 10° ESE visible
23 Jan 6.4 05:42:18 22° SSW 05:43:44 23° S 05:48:39 10° SE visible
24 Jan 6.7 04:45:01 22° SSE 04:45:01 22° SSE 04:48:12 10° SE visible
24 Jan 6.8 06:31:23 10° WSW 06:35:24 17° SSW 06:39:17 10° SSE visible
25 Jan 6.5 05:34:07 21° SSW 05:34:40 21° SSW 05:39:21 10° SSE visible
26 Jan 7.0 04:36:51 18° SSE 04:36:51 18° SSE 04:39:05 10° SE visible
26 Jan 7.0 06:23:22 10° SW 06:26:16 13° SSW 06:29:05 10° S visible
27 Jan 6.8 05:25:59 17° SSW 05:25:59 17° SSW 05:29:44 10° SSE visible
28 Jan 7.3 04:28:45 13° SSE 04:28:45 13° SSE 04:29:46 10° SSE visible
